Regional Weather Roundup
Issued by NWS

Home | Current Version | Previous Version | Graphics & Text | Print | Product List | Glossary On
Versions: 1 2 3 4 5 6 7 8 9 10 11 12 13 14 15 16 17 18 19 20 21 22 23 24 25 26 27 28 29 30 31 32 33 34 35 36 37 38 39 40 41 42 43 44 45 46 47 48 49 50
815
ASUS43 KLMK 270602
RWRKY
KENTUCKY REGIONAL WEATHER ROUNDUP
NATIONAL WEATHER SERVICE LOUISVILLE KY
200 AM EDT TUE JUN 27 2017

NOTE "FAIR" INDICATES FEW OR NO CLOUDS BELOW 12,000 FEET
WITH NO SIGNIFICANT WEATHER AND/OR OBSTRUCTIONS TO VISIBILITY.

KYZ001>023-026-027-061>063-070>075-270700-
WESTERN AND SOUTH CENTRAL KENTUCKY

CITY           SKY/WX    TMP DP  RH WIND       PRES   REMARKS
PADUCAH        CLOUDY    63  59  87 CALM      30.09F
HENDERSON      CLOUDY    61  57  87 NW3       30.12F
OWENSBORO      CLOUDY    63  54  72 NW3       30.12S
HOPKINSVILLE   CLEAR     62  57  83 N3        30.11S
BOWLING GREEN  MOCLDY    65  59  81 CALM      30.12R
GLASGOW        NOT AVBL
$$

KYZ024-025-028>034-038-045-046-053-270700-
NORTH CENTRAL KENTUCKY

CITY           SKY/WX    TMP DP  RH WIND       PRES   REMARKS
LOUISVILLE/SDF MOCLDY    67  47  48 CALM      30.11S
LOUISVILLE/LOU MOCLDY    65  50  58 CALM      30.11F
FORT KNOX      CLOUDY    58  55  87 NW3       30.11R
$$

KYZ035>037-039>044-047>052-055>060-089>105-270700-
NORTHEAST KENTUCKY

CITY           SKY/WX    TMP DP  RH WIND       PRES   REMARKS
LEXINGTON      CLOUDY    64  49  57 CALM      30.12S
COVINGTON      PTCLDY    59  49  69 SW5       30.09F
FRANKFORT      MOCLDY    63  49  60 CALM      30.10S
$$

KYZ054-064>069-076>088-106>120-270700-
SOUTHEAST KENTUCKY

CITY           SKY/WX    TMP DP  RH WIND       PRES   REMARKS
JACKSON        CLOUDY    62  51  67 W5        30.12R
LONDON         MOCLDY    59  54  83 CALM      30.12S
SOMERSET       CLEAR     57  55  94 CALM      30.13S
MIDDLESBORO    CLOUDY    58  55  91 CALM      30.13R
MONTICELLO     MOCLDY    57  56  96 NE8       30.14S
$$





USA.gov is the U.S. government's official web portal to all federal, state and local government web resources and services.